Weather Data

Pearl Creek Farm: 8878 N Farm Road 75, Walnut Grove MO 65770

<== Previous Day (Tuesday 28 Aug 2018) | Next Day (Thursday 30 Aug 2018) ==>

Summary Precipitation Data For Wednesday 29 August 2018

ElementValueUnits
Precipitation0"
Notes(none)
SourcePearl Creek Farm

Summary Temperature Data For Wednesday 29 August 2018

ElementValueUnits
High Temperature78 oF
Low Temperature71 oF
Average Temperature76 oF
High Humidity90 %
Low Humidity74 %
Average Humidity84 %
SourceSpringfield-Branson National Airport (SGF)

Detail Temperature Data For Wednesday 29 August 2018

Date / TimeTemp (F)RH (%)Dew Pt (F)Report Date / TimeSource
2018-08-29 05:52:00 76 85 71.0 2019-02-02 11:24:24.260017 Springfield-Branson National Airport (SGF)
2018-08-29 11:52:00 77 88 73.0 2019-02-02 11:24:24.260017 Springfield-Branson National Airport (SGF)
2018-08-29 12:52:00 76 82 70.0 2019-02-02 11:24:24.260017 Springfield-Branson National Airport (SGF)
2018-08-29 00:52:00 77 79 70.0 2019-02-02 11:24:24.260017 Springfield-Branson National Airport (SGF)
2018-08-29 01:52:00 76 82 70.0 2019-02-02 11:24:24.260017 Springfield-Branson National Airport (SGF)
2018-08-29 02:52:00 76 82 70.0 2019-02-02 11:24:24.260017 Springfield-Branson National Airport (SGF)
2018-08-29 03:52:00 76 85 71.0 2019-02-02 11:24:24.260017 Springfield-Branson National Airport (SGF)
2018-08-29 04:52:00 76 85 71.0 2019-02-02 11:24:24.260017 Springfield-Branson National Airport (SGF)
2018-08-29 06:52:00 76 88 72.0 2019-02-02 11:24:24.260017 Springfield-Branson National Airport (SGF)
2018-08-29 07:52:00 75 90 72.0 2019-02-02 11:24:24.260017 Springfield-Branson National Airport (SGF)
2018-08-29 08:52:00 76 88 72.0 2019-02-02 11:24:24.260017 Springfield-Branson National Airport (SGF)
2018-08-29 09:52:00 77 88 73.0 2019-02-02 11:24:24.260017 Springfield-Branson National Airport (SGF)
2018-08-29 10:52:00 78 82 72.0 2019-02-02 11:24:24.260017 Springfield-Branson National Airport (SGF)
2018-08-29 13:52:00 78 74 69.0 2019-02-02 11:24:24.260017 Springfield-Branson National Airport (SGF)
2018-08-29 14:52:00 75 79 68.0 2019-02-02 11:24:24.260017 Springfield-Branson National Airport (SGF)
2018-08-29 15:52:00 77 77 69.0 2019-02-02 11:24:24.260017 Springfield-Branson National Airport (SGF)
2018-08-29 16:52:00 76 79 69.0 2019-02-02 11:24:24.260017 Springfield-Branson National Airport (SGF)
2018-08-29 17:52:00 76 79 69.0 2019-02-02 11:24:24.260017 Springfield-Branson National Airport (SGF)
2018-08-29 18:52:00 74 82 68.0 2019-02-02 11:24:24.260017 Springfield-Branson National Airport (SGF)
2018-08-29 19:52:00 74 85 69.0 2019-02-02 11:24:24.260017 Springfield-Branson National Airport (SGF)
2018-08-29 20:52:00 74 85 69.0 2019-02-02 11:24:24.260017 Springfield-Branson National Airport (SGF)
2018-08-29 21:52:00 73 84 68.0 2019-02-02 11:24:24.260017 Springfield-Branson National Airport (SGF)
2018-08-29 22:52:00 72 87 68.0 2019-02-02 11:24:24.260017 Springfield-Branson National Airport (SGF)
2018-08-29 23:52:00 71 90 68.0 2019-02-02 11:24:24.260017 Springfield-Branson National Airport (SGF)

A total of 24 rows are displayed.